period_start,C,m1,H,J0,J1,J2,J3,J4,J5,JA,JB,JC,JD,JJ,JK,JN,#
2017-08-10 00:03:10,0.08,9.17,0.00,30.22,34.58,36.99,13.83,64.87,1015.62,1994.99,1187.03,1594.39,1719.88,599.82,581.10,5.67,0000 0000 0000 0000 000000
2017-08-10 00:08:11,0.05,9.17,0.00,30.20,34.57,36.98,13.89,65.06,1015.64,1995.00,1186.97,1594.03,1719.23,600.33,581.66,5.72,0000 0000 0000 0000 000000
2017-08-10 00:13:12,0.05,9.17,0.00,30.16,34.55,36.95,13.86,64.92,1015.64,1995.03,1186.64,1594.00,1719.02,600.22,581.57,5.77,0000 0000 0000 0000 000000
2017-08-10 00:18:13,0.04,9.18,0.00,30.14,34.52,36.93,13.89,64.89,1015.65,1995.06,1186.05,1593.99,1719.00,599.39,580.97,5.82,0000 0000 0000 0000 000000
2017-08-10 00:23:15,0.04,9.18,0.00,30.11,34.50,36.92,13.90,65.12,1015.70,1995.08,1186.00,1593.68,1718.83,600.28,581.87,5.87,0000 0000 0000 0000 000000
2017-08-10 00:28:16,0.10,9.18,0.00,30.09,34.48,36.89,13.83,65.07,1015.91,1995.17,1185.86,1593.13,1718.18,599.82,581.51,5.92,0000 0000 0000 0000 000000
2017-08-10 00:33:17,0.11,9.19,0.00,30.07,34.46,36.88,13.91,65.07,1016.13,1995.46,1185.29,1593.00,1718.00,600.18,582.02,5.97,0000 0000 0000 0000 000000
2017-08-10 00:38:18,0.04,9.19,0.00,30.04,34.44,36.85,13.93,65.34,1016.14,1995.74,1185.01,1593.00,1718.00,600.04,582.07,6.02,0000 0000 0000 0000 000000
2017-08-10 00:43:20,0.03,9.19,0.00,30.01,34.41,36.83,13.89,64.89,1016.15,1995.94,1184.95,1592.96,1717.95,600.03,582.01,6.07,0000 0000 0000 0000 000000
2017-08-10 00:48:21,0.14,9.20,0.00,29.99,34.39,36.82,13.87,64.99,1016.21,1995.95,1184.31,1592.51,1717.52,599.97,582.06,6.12,0000 0000 0000 0000 000000
2017-08-10 00:53:22,0.05,9.20,0.00,29.95,34.37,36.80,13.85,64.92,1016.31,1995.99,1184.00,1592.05,1717.05,599.54,581.79,6.17,0000 0000 0000 0000 000000
2017-08-10 00:58:23,0.00,9.20,0.00,29.93,34.35,36.78,13.82,64.76,1016.60,1995.99,1183.93,1592.00,1717.00,599.68,582.03,6.22,0000 0000 0000 0000 000000
2017-08-10 01:03:24,0.07,9.21,0.00,29.91,34.32,36.76,13.91,65.04,1016.62,1995.99,1183.31,1591.98,1716.96,600.11,582.43,6.27,0000 0000 0000 0000 000000
2017-08-10 01:08:26,0.06,9.21,0.00,29.87,34.30,36.74,13.93,64.93,1016.62,1995.99,1183.01,1591.70,1716.59,600.10,582.63,6.32,0000 0000 0000 0000 000000
2017-08-10 01:13:27,0.06,9.21,0.00,29.84,34.27,36.69,13.87,64.97,1016.74,1996.03,1182.92,1591.15,1716.09,600.18,582.68,6.37,0000 0000 0000 0000 000000
2017-08-10 01:18:28,0.07,9.22,0.00,29.81,34.25,36.68,13.89,65.05,1016.99,1996.09,1182.45,1591.04,1716.02,599.96,582.84,6.42,0000 0000 0000 0000 000000
2017-08-10 01:23:29,0.05,9.22,0.00,29.77,34.22,36.66,13.90,64.91,1017.10,1996.34,1182.05,1591.00,1716.00,600.00,583.01,6.47,0000 0000 0000 0000 000000
2017-08-10 01:28:31,0.05,9.22,0.00,29.75,34.20,36.64,13.91,64.84,1017.11,1996.62,1182.00,1591.00,1716.00,599.92,582.95,6.52,0000 0000 0000 0000 000000
2017-08-10 01:33:32,0.07,9.22,0.00,29.72,34.17,36.63,13.92,65.09,1017.11,1996.78,1181.63,1590.96,1715.92,599.81,583.00,6.57,0000 0000 0000 0000 000000
2017-08-10 01:38:34,0.11,9.23,0.00,29.69,34.15,36.61,13.90,65.02,1017.12,1996.91,1181.03,1590.62,1715.50,599.90,583.05,6.62,0000 0000 0000 0000 000000
2017-08-10 01:43:35,0.07,9.24,0.00,29.67,34.12,36.59,13.83,64.93,1017.12,1996.98,1180.82,1590.12,1715.08,599.75,582.98,6.67,0000 0000 0000 0000 000000
2017-08-10 01:48:36,0.06,9.24,0.00,29.65,34.09,36.55,13.95,65.06,1017.28,1996.99,1180.07,1590.00,1714.99,600.16,583.49,6.72,0000 0000 0000 0000 000000
2017-08-10 01:53:38,0.14,9.24,0.00,29.61,34.06,36.53,13.95,65.22,1017.55,1996.99,1179.43,1589.73,1714.47,600.07,583.52,6.77,0000 0000 0000 0000 000000
2017-08-10 01:58:39,0.10,9.25,0.00,29.58,34.04,36.52,13.91,65.13,1017.59,1996.99,1178.62,1589.04,1714.00,600.01,583.55,6.82,0000 0000 0000 0000 000000
2017-08-10 02:03:40,0.08,9.26,0.00,29.55,34.01,36.49,13.86,64.99,1017.60,1997.00,1177.95,1588.92,1713.51,599.97,583.78,6.87,0000 0000 0000 0000 000000
2017-08-10 02:08:42,0.15,9.26,0.00,29.52,33.99,36.47,13.88,64.94,1017.61,1997.04,1177.12,1588.25,1713.02,599.65,583.44,6.92,0000 0000 0000 0000 000000
2017-08-10 02:13:43,0.06,9.27,0.00,29.49,33.96,36.43,13.89,65.17,1017.62,1997.18,1176.74,1588.01,1712.98,599.65,583.50,6.97,0000 0000 0000 0000 000000
2017-08-10 02:18:44,0.14,9.27,0.00,29.46,33.93,36.41,13.98,64.96,1017.77,1997.72,1176.08,1588.00,1712.83,599.86,583.81,7.02,0000 0000 0000 0000 000000
2017-08-10 02:23:45,0.08,9.28,0.00,29.43,33.90,36.39,13.98,65.28,1018.02,1997.89,1175.86,1587.78,1712.12,600.14,584.30,7.07,0000 0000 0000 0000 000000
2017-08-10 02:28:47,0.13,9.29,0.00,29.39,33.87,36.35,13.93,65.21,1018.08,1997.97,1175.10,1587.14,1712.00,599.73,584.03,7.12,0000 0000 0000 0000 000000
2017-08-10 02:33:48,0.00,9.29,0.00,29.36,33.84,36.33,13.95,65.27,1018.08,1997.99,1174.99,1587.01,1712.00,600.06,584.45,7.17,0000 0000 0000 0000 000000
2017-08-10 02:38:50,0.06,9.29,0.00,29.33,33.81,36.30,13.91,65.19,1018.13,1997.99,1174.48,1587.00,1711.95,599.80,584.19,7.22,0000 0000 0000 0000 000000
2017-08-10 02:43:51,0.05,9.29,0.00,29.30,33.79,36.28,13.90,65.27,1018.19,1997.99,1174.01,1586.97,1711.44,599.84,584.37,7.27,0000 0000 0000 0000 000000
2017-08-10 02:48:52,0.03,9.29,0.00,29.26,33.76,36.23,13.94,65.21,1018.40,1998.05,1173.94,1586.81,1711.11,600.02,584.75,7.32,0000 0000 0000 0000 000000
2017-08-10 02:53:53,0.17,9.30,0.00,29.24,33.72,36.21,13.89,65.13,1018.56,1998.34,1173.16,1586.33,1711.03,599.77,584.62,7.37,0000 0000 0000 0000 000000
2017-08-10 02:58:55,0.06,9.31,0.00,29.21,33.70,36.19,14.00,65.32,1018.58,1998.75,1173.00,1586.12,1711.00,600.25,585.19,7.42,0000 0000 0000 0000 000000
2017-08-10 03:03:56,0.03,9.31,0.00,29.18,33.66,36.16,13.91,65.14,1018.59,1998.95,1173.00,1586.03,1711.00,599.33,584.35,7.47,0000 0000 0000 0000 000000
2017-08-10 03:08:57,0.03,9.31,0.00,29.15,33.64,36.13,13.91,64.84,1018.63,1998.99,1172.80,1586.01,1711.00,599.75,584.98,7.52,0000 0000 0000 0000 000000
2017-08-10 03:13:59,0.05,9.31,0.00,29.12,33.61,36.09,13.85,64.92,1018.78,1998.99,1172.15,1586.00,1711.00,599.43,584.83,7.57,0000 0000 0000 0000 000000
2017-08-10 03:19:00,0.00,9.31,0.00,29.08,33.58,36.06,13.91,65.29,1019.01,1998.99,1172.00,1586.00,1710.96,600.13,585.54,7.62,0000 0000 0000 0000 000000
2017-08-10 03:24:01,0.01,9.31,0.00,29.05,33.55,36.04,13.97,65.23,1019.05,1999.04,1171.98,1585.99,1710.95,599.97,585.57,7.67,0000 0000 0000 0000 000000
2017-08-10 03:29:03,0.04,9.32,0.00,29.03,33.52,36.02,14.02,65.33,1019.06,1999.18,1171.88,1585.97,1710.87,600.37,585.71,7.72,0000 0000 0000 0000 000000
2017-08-10 03:34:04,0.12,9.32,0.00,29.00,33.49,36.00,13.99,65.32,1019.06,1999.48,1171.29,1585.94,1710.65,599.96,585.59,7.77,0000 0000 0000 0000 000000
2017-08-10 03:39:06,0.07,9.33,0.00,28.96,33.46,35.95,14.04,65.42,1019.09,1999.83,1171.01,1585.84,1710.59,600.13,585.88,7.82,0000 0000 0000 0000 000000
2017-08-10 03:44:07,0.02,9.33,0.00,28.93,33.43,35.93,13.97,65.41,1019.18,1999.98,1171.00,1585.72,1710.56,599.97,585.79,7.87,0000 0000 0000 0000 000000
2017-08-10 03:49:09,0.03,9.33,0.00,28.91,33.40,35.90,13.96,64.92,1019.37,1999.99,1170.96,1585.45,1710.33,599.77,585.81,7.92,0000 0000 0000 0000 000000
2017-08-10 03:54:10,0.06,9.33,0.00,28.88,33.37,35.86,14.02,65.66,1019.52,1999.99,1170.71,1585.15,1710.10,599.83,585.98,7.98,0000 0000 0000 0000 000000
2017-08-10 03:59:11,0.06,9.33,0.00,28.85,33.34,35.84,13.99,65.47,1019.54,1999.99,1170.16,1585.04,1710.06,599.91,585.94,8.03,0000 0000 0000 0000 000000
2017-08-10 04:04:13,0.01,9.34,0.00,28.82,33.31,35.80,14.03,65.53,1019.55,2000.00,1170.01,1585.03,1710.04,599.94,586.13,8.08,0000 0000 0000 0000 000000
2017-08-10 04:09:14,0.01,9.34,0.00,28.79,33.28,35.76,14.06,65.58,1019.56,2000.04,1169.95,1585.00,1710.01,600.04,586.36,8.13,0000 0000 0000 0000 000000
2017-08-10 04:14:15,0.12,9.34,0.00,28.76,33.25,35.74,13.96,65.31,1019.56,2000.29,1169.25,1585.00,1710.02,600.47,586.82,8.18,0000 0000 0000 0000 000000
2017-08-10 04:19:17,0.08,9.35,0.00,28.74,33.22,35.71,13.95,65.53,1019.61,2000.73,1169.00,1585.00,1710.01,599.85,586.27,8.23,0000 0000 0000 0000 000000
2017-08-10 04:24:18,0.05,9.35,0.00,28.71,33.19,35.68,14.03,65.51,1019.87,2000.94,1168.76,1584.99,1710.01,600.18,586.76,8.28,0000 0000 0000 0000 000000
2017-08-10 04:29:19,0.05,9.35,0.00,28.67,33.16,35.67,14.02,65.61,1020.03,2000.99,1168.11,1584.98,1710.01,599.66,586.46,8.33,0000 0000 0000 0000 000000
2017-08-10 04:34:20,0.00,9.35,0.00,28.65,33.12,35.63,14.06,65.34,1020.03,2000.99,1167.98,1584.94,1710.02,600.44,587.29,8.38,0000 0000 0000 0000 000000
2017-08-10 04:39:22,0.09,9.36,0.00,28.62,33.10,35.58,14.10,65.62,1020.04,2000.99,1167.34,1584.70,1710.01,600.10,587.09,8.43,0000 0000 0000 0000 000000
2017-08-10 04:44:23,0.03,9.36,0.00,28.60,33.06,35.56,13.95,65.34,1020.07,2001.04,1166.99,1584.45,1710.05,599.87,586.87,8.48,0000 0000 0000 0000 000000
2017-08-10 04:49:24,0.12,9.36,0.00,28.57,33.04,35.52,14.03,65.54,1020.17,2001.36,1166.53,1584.22,1710.04,599.64,586.70,8.53,0000 0000 0000 0000 000000
2017-08-10 04:54:25,0.09,9.37,0.00,28.54,33.01,35.50,14.05,65.19,1020.32,2001.83,1166.01,1584.08,1710.06,599.98,587.20,8.58,0000 0000 0000 0000 000000
2017-08-10 04:59:26,0.03,9.37,0.00,28.52,32.98,35.47,13.99,65.47,1020.48,2001.95,1165.93,1584.01,1710.03,599.91,587.23,8.63,0000 0000 0000 0000 000000
2017-08-10 05:04:27,0.04,9.37,0.00,28.49,32.95,35.45,14.09,65.54,1020.51,2001.98,1165.50,1584.02,1710.04,600.19,587.53,8.68,0000 0000 0000 0000 000000
2017-08-10 05:09:29,0.03,9.38,0.00,28.46,32.92,35.42,14.00,65.38,1020.52,2001.99,1165.04,1584.01,1710.08,599.76,587.26,8.73,0000 0000 0000 0000 000000
2017-08-10 05:14:30,0.00,9.38,0.00,28.42,32.89,35.39,13.93,65.39,1020.52,2002.00,1164.99,1584.00,1710.06,599.44,587.08,8.78,0000 0000 0000 0000 000000
2017-08-10 05:19:31,0.02,9.38,0.00,28.40,32.86,35.35,14.05,65.40,1020.53,2002.01,1164.85,1584.00,1710.05,600.19,587.58,8.83,0000 0000 0000 0000 000000
2017-08-10 05:24:33,0.07,9.38,0.00,28.38,32.83,35.32,13.97,65.25,1020.65,2002.07,1164.17,1584.00,1710.01,599.87,587.66,8.88,0000 0000 0000 0000 000000
2017-08-10 05:29:34,0.06,9.38,0.00,28.35,32.80,35.27,14.04,65.52,1020.95,2002.42,1164.00,1584.00,1710.03,600.21,588.20,8.93,0000 0000 0000 0000 000000
2017-08-10 05:34:35,0.05,9.39,0.00,28.32,32.77,35.26,14.02,65.42,1021.00,2002.79,1164.00,1584.00,1710.02,599.57,587.67,8.98,0000 0000 0000 0000 000000
2017-08-10 05:39:37,0.02,9.39,0.00,28.28,32.75,35.22,14.04,65.58,1021.01,2002.95,1164.00,1584.00,1710.06,599.87,587.97,9.03,0000 0000 0000 0000 000000
2017-08-10 05:44:38,-0.00,9.39,0.00,28.26,32.71,35.21,13.98,65.18,1021.01,2002.99,1163.99,1584.00,1710.29,600.01,588.25,9.08,0000 0000 0000 0000 000000
2017-08-10 05:49:39,-0.02,9.39,0.00,28.23,32.69,35.18,13.99,65.44,1021.03,2002.99,1163.97,1584.02,1710.68,599.52,587.83,9.13,0000 0000 0000 0000 000000
2017-08-10 05:54:40,-0.00,9.39,0.00,28.20,32.66,35.15,14.09,65.45,1021.16,2002.99,1163.89,1584.10,1710.94,599.97,588.38,9.18,0000 0000 0000 0000 000000
2017-08-10 05:59:42,0.00,9.39,0.00,28.18,32.63,35.12,14.02,65.49,1021.39,2003.05,1163.86,1584.21,1710.99,600.20,588.70,9.23,0000 0000 0000 0000 000000
2017-08-10 06:04:43,-0.01,9.39,0.00,28.15,32.60,35.10,14.06,65.49,1021.49,2003.22,1163.81,1584.41,1710.99,600.03,588.71,9.28,0000 0000 0000 0000 000000
2017-08-10 06:09:44,0.10,9.39,0.00,28.12,32.57,35.08,14.06,65.69,1021.50,2003.74,1163.58,1584.72,1710.99,600.12,588.76,9.33,0000 0000 0000 0000 000000
2017-08-10 06:14:45,0.03,9.39,0.00,28.09,32.54,35.03,14.04,65.70,1021.50,2003.93,1163.27,1584.82,1710.99,599.90,588.89,9.38,0000 0000 0000 0000 000000
2017-08-10 06:19:47,0.02,9.39,0.00,28.07,32.51,35.00,14.10,65.59,1021.50,2003.97,1163.10,1584.89,1711.00,600.17,589.03,9.43,0000 0000 0000 0000 000000
2017-08-10 06:24:48,0.00,9.39,0.00,28.05,32.48,35.00,14.07,65.61,1021.51,2003.99,1163.03,1584.92,1711.01,599.65,588.54,9.48,0000 0000 0000 0000 000000
2017-08-10 06:29:49,-0.00,9.39,0.00,28.02,32.45,34.96,14.10,65.88,1021.53,2003.99,1163.00,1584.96,1711.06,600.07,588.89,9.53,0000 0000 0000 0000 000000
2017-08-10 06:34:50,-0.01,9.39,0.00,28.00,32.42,34.93,14.07,65.44,1021.71,2004.00,1163.00,1584.96,1711.19,599.92,588.93,9.58,0000 0000 0000 0000 000000
2017-08-10 06:39:52,-0.00,9.39,0.00,27.96,32.39,34.90,14.15,65.63,1021.91,2004.07,1163.00,1584.99,1711.53,600.27,589.34,9.63,0000 0000 0000 0000 000000
2017-08-10 06:44:53,0.04,9.39,0.00,27.93,32.36,34.87,14.18,66.11,1021.96,2004.33,1162.98,1584.98,1711.81,600.34,589.73,9.68,0000 0000 0000 0000 000000
2017-08-10 06:49:54,0.06,9.40,0.00,27.90,32.33,34.85,13.98,65.27,1021.99,2004.82,1162.95,1584.99,1711.90,600.13,589.56,9.73,0000 0000 0000 0000 000000
2017-08-10 06:54:56,0.03,9.40,0.00,27.88,32.31,34.82,14.16,65.85,1021.99,2004.95,1162.92,1584.99,1711.95,600.31,589.83,9.78,0000 0000 0000 0000 000000
2017-08-10 06:59:57,0.01,9.40,0.00,27.85,32.28,34.77,14.06,65.62,1021.99,2004.99,1162.81,1584.99,1711.97,600.17,589.48,9.83,0000 0000 0000 0000 000000
2017-08-10 07:04:58,0.02,9.40,0.00,27.83,32.25,34.75,14.00,65.66,1022.09,2004.99,1162.67,1584.99,1711.99,599.73,589.41,9.88,0000 0000 0000 0000 000000
2017-08-10 07:09:59,0.02,9.40,0.00,27.80,32.22,34.72,14.11,65.78,1022.33,2004.99,1162.38,1584.99,1711.99,600.49,590.19,9.93,0000 0000 0000 0000 000000
2017-08-10 07:15:00,0.02,9.40,0.00,27.77,32.19,34.71,14.05,65.63,1022.40,2004.99,1162.16,1584.99,1711.99,599.94,589.97,9.98,0000 0000 0000 0000 000000
2017-08-10 07:20:01,0.01,9.40,0.00,27.74,32.16,34.66,14.08,65.57,1022.47,2005.02,1162.06,1584.99,1711.99,600.30,590.24,10.03,0000 0000 0000 0000 000000
2017-08-10 07:25:02,0.02,9.40,0.00,27.72,32.13,34.64,14.10,65.83,1022.48,2005.13,1162.02,1584.99,1711.99,599.76,590.05,10.08,0000 0000 0000 0000 000000
2017-08-10 07:30:03,0.05,9.41,0.00,27.70,32.10,34.61,14.11,65.59,1022.49,2005.48,1162.00,1584.99,1711.99,599.74,589.90,10.13,0000 0000 0000 0000 000000
2017-08-10 07:35:05,0.05,9.41,0.00,27.66,32.07,34.59,14.04,65.82,1022.54,2005.87,1162.00,1584.99,1711.99,600.09,590.34,10.18,0000 0000 0000 0000 000000
2017-08-10 07:40:06,0.01,9.41,0.00,27.63,32.04,34.52,14.12,65.79,1022.67,2005.97,1162.00,1585.00,1712.00,600.46,590.80,10.23,0000 0000 0000 0000 000000
2017-08-10 07:45:07,0.00,9.41,0.00,27.61,32.01,34.52,14.15,65.94,1022.74,2005.99,1162.00,1585.01,1712.01,600.09,590.57,10.28,0000 0000 0000 0000 000000
2017-08-10 07:50:09,-0.00,9.41,0.00,27.57,31.99,34.49,14.15,65.85,1022.94,2005.99,1162.00,1585.03,1712.06,600.52,590.88,10.33,0000 0000 0000 0000 000000
2017-08-10 07:55:10,0.00,9.41,0.00,27.55,31.96,34.46,14.04,65.47,1022.96,2006.01,1161.97,1585.03,1712.08,600.05,590.92,10.39,0000 0000 0000 0000 000000
2017-08-10 08:00:12,0.07,9.41,0.00,27.52,31.93,34.44,14.14,65.96,1022.97,2006.09,1161.42,1585.00,1712.01,600.40,591.05,10.44,0000 0000 0000 0000 000000
2017-08-10 08:05:13,0.05,9.42,0.00,27.49,31.90,34.41,13.98,65.17,1022.99,2006.25,1161.10,1584.98,1711.99,599.42,589.98,10.49,0000 0000 0000 0000 000000
2017-08-10 08:10:14,0.13,9.42,0.00,27.46,31.86,34.37,14.08,65.86,1023.01,2006.59,1161.01,1584.52,1711.82,599.53,590.40,10.54,0000 0000 0000 0000 000000
2017-08-10 08:15:15,0.06,9.43,0.00,27.44,31.84,34.34,13.98,65.15,1023.04,2006.92,1160.99,1584.08,1711.47,599.30,590.41,10.59,0000 0000 0000 0000 000000
2017-08-10 08:20:17,-0.01,9.43,0.00,27.41,31.81,34.30,14.12,65.80,1023.29,2006.99,1160.97,1584.07,1711.80,600.30,591.43,10.64,0000 0000 0000 0000 000000
2017-08-10 08:25:18,-0.01,9.43,0.00,27.37,31.78,34.27,14.06,65.92,1023.41,2006.99,1160.94,1584.22,1711.94,600.03,591.30,10.69,0000 0000 0000 0000 000000
2017-08-10 08:30:20,-0.02,9.43,0.00,27.34,31.75,34.26,13.98,64.95,1023.45,2007.01,1160.87,1584.61,1711.99,598.43,589.81,10.74,0000 0000 0000 0000 000000
2017-08-10 08:35:21,0.02,9.43,0.00,27.31,31.72,34.22,14.12,65.74,1023.45,2007.08,1160.52,1584.89,1711.99,600.26,591.72,10.79,0000 0000 0000 0000 000000
2017-08-10 08:40:22,0.06,9.43,0.00,27.29,31.69,34.19,14.13,65.73,1023.45,2007.29,1160.35,1584.93,1711.99,600.09,591.45,10.84,0000 0000 0000 0000 000000
2017-08-10 08:45:24,0.04,9.43,0.00,27.26,31.66,34.17,14.19,65.85,1023.45,2007.77,1160.48,1584.98,1711.99,600.15,591.67,10.89,0000 0000 0000 0000 000000
2017-08-10 08:50:25,0.02,9.43,0.00,27.22,31.63,34.14,14.03,65.37,1023.47,2007.96,1160.34,1584.99,1712.07,599.48,591.06,10.94,0000 0000 0000 0000 000000
2017-08-10 08:55:26,0.00,9.43,0.00,27.19,31.60,34.13,14.14,66.11,1023.49,2007.98,1160.22,1584.99,1712.26,599.68,591.46,10.99,0000 0000 0000 0000 000000
2017-08-10 09:00:27,-0.04,9.43,0.00,27.16,31.57,34.09,14.05,65.37,1023.85,2007.99,1160.35,1584.99,1712.66,599.25,591.23,11.04,0000 0000 0000 0000 000000
2017-08-10 09:05:29,0.02,9.43,0.00,27.13,31.54,34.07,14.25,66.22,1023.93,2007.99,1160.25,1584.99,1712.87,600.19,592.49,11.09,0000 0000 0000 0000 000000
2017-08-10 09:10:30,0.01,9.43,0.00,27.10,31.51,34.03,14.04,65.57,1023.94,2008.02,1160.05,1585.05,1712.98,599.92,592.15,11.14,0000 0000 0000 0000 000000
2017-08-10 09:15:31,0.01,9.43,0.00,27.07,31.48,34.01,14.18,65.90,1023.94,2008.16,1159.93,1584.96,1712.72,600.45,592.73,11.19,0000 0000 0000 0000 000000
2017-08-10 09:20:32,0.79,9.46,0.00,27.05,31.45,33.96,14.07,65.59,1023.94,2008.40,1157.82,1581.36,1708.43,599.83,592.08,11.24,0000 0000 0000 0000 000000
2017-08-10 09:25:34,0.10,9.48,0.00,27.01,31.42,33.93,14.04,65.45,1023.94,2008.81,1157.36,1581.00,1708.05,599.95,592.21,11.29,0000 0000 0000 0000 000000
2017-08-10 09:30:35,0.01,9.48,0.00,26.99,31.39,33.91,14.18,66.26,1023.95,2008.97,1157.23,1581.00,1708.20,600.02,592.47,11.34,0000 0000 0000 0000 000000
2017-08-10 09:35:36,-0.03,9.48,0.00,26.96,31.37,33.88,14.18,65.98,1023.94,2008.99,1157.40,1581.00,1708.61,600.11,592.60,11.39,0000 0000 0000 0000 000000
2017-08-10 09:40:37,-0.04,9.47,0.00,26.93,31.34,33.86,14.15,65.60,1023.95,2008.99,1157.69,1581.03,1708.83,600.35,592.87,11.44,0000 0000 0000 0000 000000
2017-08-10 09:45:39,-0.01,9.47,0.00,26.91,31.31,33.83,14.14,66.06,1024.14,2009.01,1157.62,1581.10,1708.98,599.92,592.55,11.49,0000 0000 0000 0000 000000
2017-08-10 09:50:40,-0.01,9.47,0.00,26.86,31.28,33.79,14.18,65.84,1024.39,2009.06,1157.55,1581.35,1708.99,599.86,592.93,11.54,0000 0000 0000 0000 000000
2017-08-10 09:55:41,0.03,9.47,0.00,26.83,31.25,33.76,14.20,66.07,1024.43,2009.45,1157.76,1581.77,1708.99,600.63,593.67,11.59,0000 0000 0000 0000 000000
2017-08-10 10:00:42,0.05,9.48,0.00,26.81,31.22,33.74,14.20,66.04,1024.44,2009.81,1157.62,1581.93,1708.99,600.02,592.95,11.64,0000 0000 0000 0000 000000
2017-08-10 10:05:43,-0.01,9.48,0.00,26.79,31.19,33.72,14.24,66.22,1024.45,2009.94,1157.71,1581.95,1709.00,600.12,593.19,11.69,0000 0000 0000 0000 000000
2017-08-10 10:10:44,0.01,9.48,0.00,26.76,31.16,33.69,14.13,65.92,1024.46,2009.97,1157.67,1581.98,1709.02,600.18,593.33,11.74,0000 0000 0000 0000 000000
2017-08-10 10:15:46,-0.00,9.48,0.00,26.73,31.13,33.66,14.14,65.67,1024.44,2009.99,1157.66,1581.99,1709.10,599.88,593.03,11.79,0000 0000 0000 0000 000000
2017-08-10 10:20:47,-0.02,9.48,0.00,26.70,31.10,33.63,14.16,65.90,1024.44,2009.99,1157.68,1581.99,1709.45,600.10,593.10,11.84,0000 0000 0000 0000 000000
2017-08-10 10:25:48,0.01,9.48,0.00,26.67,31.07,33.60,14.09,65.76,1024.45,2009.99,1157.53,1581.99,1709.79,599.96,593.41,11.89,0000 0000 0000 0000 000000
2017-08-10 10:30:50,-0.00,9.48,0.00,26.64,31.04,33.57,14.15,65.94,1024.56,2010.02,1157.46,1582.02,1709.96,600.03,593.44,11.94,0000 0000 0000 0000 000000
2017-08-10 10:35:51,0.01,9.48,0.00,26.61,31.01,33.55,14.22,65.81,1024.53,2010.11,1157.59,1582.07,1709.99,600.15,593.58,11.99,0000 0000 0000 0000 000000
2017-08-10 10:40:52,0.03,9.48,0.00,26.57,30.98,33.52,14.18,66.32,1024.56,2010.42,1157.53,1582.43,1709.99,600.54,593.80,12.04,0000 0000 0000 0000 000000
2017-08-10 10:45:53,0.04,9.48,0.00,26.55,30.95,33.48,14.12,65.90,1024.78,2010.92,1157.25,1582.88,1710.03,600.07,593.77,12.09,0000 0000 0000 0000 000000
2017-08-10 10:50:54,0.00,9.48,0.00,26.51,30.92,33.46,14.26,66.14,1024.91,2010.98,1157.29,1582.97,1710.12,599.99,593.74,12.14,0000 0000 0000 0000 000000
2017-08-10 10:55:55,-0.02,9.48,0.00,26.48,30.89,33.43,14.19,65.86,1024.92,2010.99,1157.23,1582.99,1710.57,599.95,593.87,12.19,0000 0000 0000 0000 000000
2017-08-10 11:00:57,0.01,9.48,0.00,26.47,30.86,33.42,14.35,66.35,1024.92,2010.99,1157.06,1582.99,1710.90,600.31,594.34,12.24,0000 0000 0000 0000 000000
2017-08-10 11:05:58,0.00,9.48,0.00,26.44,30.83,33.40,14.13,66.14,1024.92,2011.00,1157.04,1582.99,1710.98,599.83,593.93,12.29,0000 0000 0000 0000 000000
2017-08-10 11:10:59,0.01,9.48,0.00,26.40,30.80,33.35,14.20,66.08,1024.92,2011.08,1157.05,1583.02,1710.99,599.83,593.99,12.34,0000 0000 0000 0000 000000
2017-08-10 11:16:00,0.05,9.48,0.00,26.37,30.77,33.32,14.06,65.63,1024.93,2011.45,1157.05,1583.20,1711.00,599.61,593.78,12.39,0000 0000 0000 0000 000000
2017-08-10 11:21:02,0.02,9.48,0.00,26.35,30.74,33.28,14.24,65.97,1024.93,2011.88,1157.04,1583.64,1711.05,599.97,594.13,12.44,0000 0000 0000 0000 000000
2017-08-10 11:26:03,-0.04,9.48,0.00,26.32,30.71,33.26,14.18,65.69,1024.93,2011.98,1157.05,1583.93,1711.44,599.41,593.73,12.49,0000 0000 0000 0000 000000
2017-08-10 11:31:04,-0.01,9.48,0.00,26.28,30.68,33.23,14.18,65.97,1024.93,2011.99,1157.03,1583.98,1711.92,599.97,594.25,12.54,0000 0000 0000 0000 000000
2017-08-10 11:36:05,0.00,9.48,0.00,26.25,30.65,33.21,14.27,66.09,1024.94,2011.99,1157.02,1583.99,1711.97,600.15,594.56,12.59,0000 0000 0000 0000 000000
2017-08-10 11:41:06,0.00,9.48,0.00,26.23,30.62,33.17,14.22,66.13,1025.15,2012.02,1157.01,1583.99,1711.99,599.82,594.23,12.64,0000 0000 0000 0000 000000
2017-08-10 11:46:08,0.06,9.48,0.00,26.19,30.59,33.14,14.17,65.89,1025.28,2012.34,1157.00,1584.03,1712.00,599.84,594.63,12.69,0000 0000 0000 0000 000000
2017-08-10 11:51:09,0.03,9.49,0.00,26.16,30.56,33.11,14.18,65.73,1025.38,2012.81,1157.01,1584.18,1712.10,600.06,594.88,12.75,0000 0000 0000 0000 000000
2017-08-10 11:56:11,-0.03,9.49,0.00,26.14,30.53,33.07,14.22,65.78,1025.40,2012.95,1157.00,1584.53,1712.39,600.42,595.35,12.80,0000 0000 0000 0000 000000
2017-08-10 12:01:12,-0.03,9.48,0.00,26.11,30.50,33.02,14.19,65.89,1025.40,2012.99,1157.00,1584.85,1712.78,599.90,594.78,12.85,0000 0000 0000 0000 000000
2017-08-10 12:06:13,-0.01,9.48,0.00,26.08,30.47,33.00,14.15,65.90,1025.40,2012.99,1157.00,1584.95,1712.92,599.79,594.90,12.90,0000 0000 0000 0000 000000
2017-08-10 12:11:15,-0.00,9.48,0.00,26.05,30.44,32.96,14.19,66.06,1025.40,2012.99,1157.00,1584.98,1712.98,600.14,595.21,12.95,0000 0000 0000 0000 000000
2017-08-10 12:16:16,0.00,9.48,0.00,26.02,30.41,32.96,14.18,65.94,1025.40,2012.99,1157.00,1584.99,1712.98,599.91,594.96,13.00,0000 0000 0000 0000 000000
2017-08-10 12:21:18,0.01,9.48,0.00,25.99,30.38,32.91,14.21,66.49,1025.40,2013.04,1157.00,1584.99,1712.99,600.08,595.31,13.05,0000 0000 0000 0000 000000
2017-08-10 12:26:19,0.04,9.48,0.00,25.96,30.35,32.88,14.16,66.10,1025.40,2013.26,1157.00,1585.00,1713.00,599.68,594.95,13.10,0000 0000 0000 0000 000000
2017-08-10 12:31:20,0.08,9.49,0.00,25.94,30.31,32.84,14.30,66.63,1025.41,2013.75,1156.98,1585.00,1713.00,600.02,595.37,13.15,0000 0000 0000 0000 000000
2017-08-10 12:36:21,0.01,9.49,0.00,25.91,30.28,32.84,14.08,65.92,1025.41,2013.97,1156.98,1585.01,1713.01,599.40,594.70,13.20,0000 0000 0000 0000 000000
2017-08-10 12:41:22,0.00,9.49,0.00,25.88,30.26,32.81,14.25,66.32,1025.42,2013.99,1156.98,1585.03,1713.08,600.24,595.69,13.25,0000 0000 0000 0000 000000
2017-08-10 12:46:23,-0.03,9.49,0.00,25.85,30.22,32.79,14.22,66.38,1025.42,2013.99,1156.97,1585.19,1713.43,600.34,595.85,13.30,0000 0000 0000 0000 000000
2017-08-10 12:51:25,-0.05,9.49,0.00,25.81,30.19,32.75,14.11,65.97,1025.43,2014.00,1156.98,1585.70,1713.89,599.60,595.17,13.35,0000 0000 0000 0000 000000
2017-08-10 12:56:26,-0.01,9.48,0.00,25.78,30.16,32.72,14.28,66.22,1025.42,2014.04,1156.98,1585.96,1713.98,600.06,595.67,13.40,0000 0000 0000 0000 000000